{"data":{"norad_id":62429,"epoch":"2026-09-21T09:17:48.104448Z","epoch_age_seconds":97860,"freshness":"FRESH","line1":"1 62429U 24249W   26264.38736232  .00009715  00000+0  36208-3 0  9991","line2":"2 62429  43.0009 288.8199 0000589 307.4264  52.6534 15.27580206 97742","mean_motion":15.27580206,"eccentricity":5.89e-5,"inclination_deg":43.0009,"raan_deg":288.8199,"arg_perigee_deg":307.4264,"mean_anomaly_deg":52.6534,"bstar":0.00036208,"rev_number":9774,"period_min":94.266736001422,"perigee_km":482.64435537689,"apogee_km":483.45260302634,"semimajor_km":6861.1854792016,"source":"CELESTRAK","updated_at":"2026-09-22T09:00:49.579450Z"}}